Regional Weather Roundup
Issued by NWS Cleveland, OH

Home | Current Version | Previous Version | Graphics & Text | Print | Product List | Glossary On
Versions: 1 2 3 4 5 6 7 8 9 10 11 12 13 14 15 16 17 18 19 20 21 22 23 24 25 26 27 28 29 30 31 32 33 34 35 36 37 38 39 40 41 42 43 44 45 46 47 48 49 50
809
ASUS41 KCLE 220102
RWRCLE
OHIO REGIONAL WEATHER ROUNDUP
NATIONAL WEATHER SERVICE CLEVELAND, OH
800 PM EST WED FEB 21 2018

NOTE: "FAIR" INDICATES FEW OR NO CLOUDS BELOW 12,000 FEET WITH NO
SIGNIFICANT WEATHER AND/OR OBSTRUCTIONS TO VISIBILITY.

OHZ001>008-015>018-024>027-034-035-043-044-220200-
   NORTHWEST OHIO

CITY           SKY/WX    TMP DP  RH WIND       PRES   REMARKS
DEFIANCE       FAIR      38  33  82 NE7       30.58R
FINDLAY        CLOUDY    37  33  85 NE10      30.56R
TOLEDO EXPRESS CLOUDY    37  35  92 E9        30.59R
TOLEDO EXEC    MOCLDY    35  31  85 E9        30.60R WCI  28
LIMA           CLOUDY    37  37 100 E13       30.55R
$$

OHZ009>014-019>023-028>033-038-089-220200-
   NORTHEAST OHIO

CITY           SKY/WX    TMP DP  RH WIND       PRES   REMARKS
CLE-HOPKINS    CLOUDY    34  28  79 NE13      30.60S WCI  25
CLE-LAKEFRONT  CLOUDY    34  28  79 NE10      30.58S WCI  26
CUY CO. ARPT   CLOUDY    34  28  80 NE9       30.59R WCI  26
LORAIN-ELYRIA  CLOUDY    33  26  75 NE14      30.58R WCI  23
ASHTABULA      CLOUDY    33  30  88 N6        30.58R WCI  28
AKRON-CANTON   LGT RAIN  36  31  82 NE8       30.52F
WOOSTER        LGT RAIN  34  32  92 N10       30.54S WCI  26
MANSFIELD      CLOUDY    34  33  96 NE9       30.54R WCI  27
YOUNGSTOWN     LGT RAIN  34  32  92 N9        30.53R WCI  27
$$

OHZ042-051>053-060>062-070>072-077>081-220200-
  SOUTHWEST OHIO

CITY           SKY/WX    TMP DP  RH WIND       PRES   REMARKS
CINC-COVINGTON LGT RAIN  43  43 100 NE13      30.48R
CINC-LUNKEN    LGT RAIN  44  43  96 N7        30.51R
HAMILTON       LGT RAIN  43  31  62 N7        30.52R
DAYTON         LGT RAIN  40  40 100 NE13      30.52R
WRIGHT-PAT AFB LGT RAIN  42  39  90 N9        30.51S
DAYTON GENERAL RAIN      43  40  89 NE12      30.49R
WILMINGTON     LGT RAIN  42  41  96 N15G24    30.48S
$$

OHZ036-037-039>041-045>050-054>059-063>069-073>076-082>088-220200-
  CENTRAL AND SOUTHEAST OHIO

CITY           SKY/WX    TMP DP  RH WIND       PRES   REMARKS
COLUMBUS       LGT RAIN  43  40  89 NE12      30.53R
OSU AIRPORT    LGT RAIN  41  40  96 N7        30.53R
BOLTON FIELD   NOT AVBL
RICKENBACK AFB LGT RAIN  42  42  98 N13       30.51R
NEWARK         CLOUDY    41  37  86 NE9       30.51R
MARION         MIX PCPN  36  33  89 NE13      30.56R
LANCASTER      LGT RAIN  43  41  93 N9        30.52R
ZANESVILLE     CLOUDY    43  37  79 N8        30.51R
NEW PHILLY     NOT AVBL
$$




USA.gov is the U.S. government's official web portal to all federal, state and local government web resources and services.